Home   Weather   Brønnøysund   Past weeks

Flag for Norway Past Weather in Brønnøysund, Norway — Yesterday and Last 2 Weeks

Now
34 °F

Scattered showers. Broken clouds.


Feels Like: 26 °F
Forecast: 33 / 40 °F
Wind: 10 mph from West

Location: Bronnoysund / Bronnoy

Current Time: Jan 20, 2017 at 1:19:50 pm

Latest Report: Jan 20, 2017 at 12:20 pm


Visibility: N/A

Pressure: 29.98 "Hg

Humidity: 93%

Dew Point: 32 °F

Location of BrønnøysundLocation

Past Weather in Brønnøysund — Graph

°F

Brønnøysund Temperature Yesterday

Maximum temperature yesterday: 43 °F (at 2:20 am)
Minimum temperature yesterday: 30 °F (at 6:50 pm)
Average temperature yesterday: 37 °F

High & Low Weather Summary for the Past Weeks

 TemperatureHumidityPressure
High45 °F (Jan 8, 10:50 am)100% (Jan 6, 8:50 pm)30.39 "Hg (Jan 6, 8:50 pm)
Low23 °F (Jan 5, 11:20 am)52% (Jan 6, 4:50 am)28.59 "Hg (Jan 11, 11:20 pm)
Average36 °F83%29.62 "Hg
* Reported Jan 5 11:20 am — Jan 20 11:50 am, Brønnøysund, Weather by CustomWeather, © 2017

Note: Actual official high and low records may vary slightly from our data, if they occured in-between our weather recording intervals... More about our weather records

Advertising

Brønnøysund Weather History for the Previous 24 Hours

Scroll right to see more
 ConditionsComfort  
Time TempWeatherWind HumidityBarometerVisibility
11:50 am
Fri, Jan 20
34 °FSprinkles. Broken clouds.9 mph93%29.98 "HgN/A
11:20 am34 °FScattered showers. Broken clouds.6 mph93%29.98 "HgN/A
10:50 am34 °FScattered showers. Broken clouds.8 mph93%29.98 "HgN/A
10:20 am32 °FScattered showers. Broken clouds.5 mph100%29.98 "HgN/A
9:50 am32 °FSnow. Dense fog.6 mph100%29.95 "Hg2 mi
9:20 am34 °FSnow flurries. Fog.9 mph93%29.95 "Hg4 mi
8:50 am34 °FSnow flurries. Fog.10 mph93%29.95 "Hg4 mi
8:20 am36 °FScattered showers. Partly cloudy.10 mph87%29.92 "HgN/A
7:50 am36 °FSprinkles. Partly cloudy.10 mph75%29.95 "HgN/A
7:20 am36 °FSprinkles. Partly cloudy.10 mph70%29.92 "HgN/A
6:50 am36 °FPassing clouds.9 mph70%29.92 "HgN/A
6:20 am36 °FSprinkles. Passing clouds.6 mph75%29.92 "HgN/A
5:50 am36 °FSnow flurries. Passing clouds.9 mph70%29.95 "HgN/A
5:20 am36 °FSprinkles. Mostly cloudy.9 mph75%29.95 "HgN/A
4:50 am34 °FSprinkles. Overcast.3 mph81%29.95 "HgN/A
4:20 am34 °FSprinkles. Overcast.7 mph81%29.95 "HgN/A
3:50 am34 °FSnow flurries. Partly cloudy.9 mph87%29.98 "HgN/A
3:20 am34 °FSprinkles. Mostly cloudy.10 mph75%29.98 "HgN/A
2:50 am34 °FSnow flurries. Overcast.9 mph81%29.98 "HgN/A
2:20 am34 °FSprinkles. Low clouds.7 mph87%29.98 "HgN/A
1:50 am32 °FSprinkles. Partly cloudy.12 mph93%30.01 "HgN/A
1:20 am32 °FSprinkles. Partly cloudy.10 mph93%30.01 "HgN/A
12:50 am34 °FSprinkles. Passing clouds.10 mph87%30.04 "HgN/A
12:20 am34 °FSprinkles. Mostly cloudy.13 mph81%30.04 "HgN/A
11:50 pm
Thu, Jan 19
32 °FSprinkles. Overcast.9 mph93%30.04 "HgN/A
11:20 pm32 °FSprinkles. Overcast.12 mph87%30.04 "HgN/A
10:50 pm32 °FSnow flurries. Passing clouds.14 mph93%30.04 "HgN/A
10:20 pm32 °FSnow flurries. Partly cloudy.16 mph93%30.04 "HgN/A
9:50 pm32 °FSnow flurries. Light fog.14 mph87%30.07 "Hg4 mi
9:20 pm30 °FSnow flurries. Ice fog.15 mph100%30.07 "Hg2 mi
8:50 pm34 °FSnow flurries. Partly cloudy.14 mph70%30.04 "HgN/A
8:20 pm32 °FSnow flurries. Partly cloudy.10 mph80%30.04 "HgN/A
7:50 pm32 °FSnow flurries. Passing clouds.15 mph75%30.04 "HgN/A
7:20 pm32 °FSnow flurries. Partly cloudy.17 mph80%30.04 "HgN/A
6:50 pm30 °FSnow flurries. Partly cloudy.16 mph86%30.04 "HgN/A
5:50 pm34 °FPartly cloudy.14 mph60%30.04 "HgN/A
4:50 pm34 °FSnow flurries. Partly cloudy.16 mph65%30.01 "HgN/A
4:20 pm34 °FScattered showers. Partly cloudy.18 mph56%30.01 "HgN/A
3:50 pm34 °FSnow flurries. Partly cloudy.15 mph70%30.01 "HgN/A
3:20 pm34 °FSnow flurries. Passing clouds.20 mph70%29.98 "HgN/A
2:50 pm34 °FSprinkles. Broken clouds.22 mph75%29.95 "HgN/A
2:20 pm34 °FSprinkles. Broken clouds.25 mph75%29.95 "HgN/A
1:50 pm36 °FSprinkles. Partly sunny.24 mph56%29.92 "HgN/A
1:20 pm36 °FScattered showers. Partly sunny.30 mph65%29.89 "HgN/A
Weather by CustomWeather, © 2017

See weather overviewHow to use our weather pages